Time,TemperatureF,DewpointF,PressureIn,WindDirection,WindDirectionDegrees,WindSpeedMPH,WindSpeedGustMPH,Humidity,HourlyPrecipIn,Conditions,Clouds,dailyrainin,SoftwareType,DateUTC
2013-07-26 00:00:00,58.7,57.8,30.07,NNW,329,0.0,2.0,97,0.00,,---,0.72,VWS V14.01,2013-07-26 04:00:00,
2013-07-26 00:05:00,58.7,57.8,30.07,NNE,22,3.0,5.0,97,0.00,,---,0.00,VWS V14.01,2013-07-26 04:05:00,
2013-07-26 00:10:00,58.7,57.8,30.07,NNE,22,0.0,3.0,97,0.00,,---,0.00,VWS V14.01,2013-07-26 04:10:00,
2013-07-26 00:15:00,58.8,58.0,30.07,NE,40,0.0,1.0,97,0.00,,---,0.00,VWS V14.01,2013-07-26 04:15:00,
2013-07-26 00:20:00,58.8,58.0,30.07,NNW,333,0.0,3.0,97,0.00,,---,0.00,VWS V14.01,2013-07-26 04:20:00,
2013-07-26 00:25:00,58.9,58.0,30.07,NW,310,0.0,1.0,97,0.00,,---,0.00,VWS V14.01,2013-07-26 04:25:00,
2013-07-26 00:30:00,58.9,58.0,30.06,NNW,327,1.0,2.0,97,0.00,,---,0.00,VWS V14.01,2013-07-26 04:30:00,
2013-07-26 00:35:00,59.0,58.2,30.07,NNW,327,0.0,1.0,97,0.00,,---,0.00,VWS V14.01,2013-07-26 04:35:00,
2013-07-26 00:40:00,59.0,58.2,30.06,NNW,327,0.0,1.0,97,0.00,,---,0.00,VWS V14.01,2013-07-26 04:40:00,
2013-07-26 00:45:00,59.1,58.2,30.06,North,359,0.0,1.0,97,0.00,,---,0.00,VWS V14.01,2013-07-26 04:45:00,
2013-07-26 00:50:00,59.2,58.3,30.06,North,355,0.0,1.0,97,0.00,,---,0.00,VWS V14.01,2013-07-26 04:50:00,
2013-07-26 00:55:00,59.3,58.5,30.06,North,355,0.0,1.0,97,0.00,,---,0.00,VWS V14.01,2013-07-26 04:55:00,
2013-07-26 01:00:00,59.3,58.5,30.06,North,355,0.0,1.0,97,0.01,,---,0.01,VWS V14.01,2013-07-26 05:00:00,
2013-07-26 01:05:00,59.3,58.5,30.06,East,101,0.0,2.0,97,0.01,,---,0.01,VWS V14.01,2013-07-26 05:05:00,
2013-07-26 01:10:00,59.4,58.5,30.05,NNW,335,0.0,1.0,97,0.01,,---,0.01,VWS V14.01,2013-07-26 05:10:00,
2013-07-26 01:15:00,59.4,58.5,30.05,NNW,341,0.0,1.0,97,0.01,,---,0.01,VWS V14.01,2013-07-26 05:15:00,
2013-07-26 01:20:00,59.5,58.7,30.05,NNE,30,0.0,2.0,97,0.01,,---,0.01,VWS V14.01,2013-07-26 05:20:00,
2013-07-26 01:25:00,59.6,58.8,30.05,NNE,30,0.0,1.0,97,0.01,,---,0.01,VWS V14.01,2013-07-26 05:25:00,
2013-07-26 01:30:00,59.6,58.8,30.05,NNE,30,0.0,0.0,97,0.01,,---,0.01,VWS V14.01,2013-07-26 05:30:00,
2013-07-26 01:35:00,59.6,58.8,30.05,NNE,26,0.0,4.0,97,0.01,,---,0.01,VWS V14.01,2013-07-26 05:35:00,
2013-07-26 01:40:00,59.6,58.8,30.05,NNE,21,0.0,3.0,97,0.01,,---,0.01,VWS V14.01,2013-07-26 05:40:00,
2013-07-26 01:45:00,59.6,58.8,30.05,WNW,293,2.0,5.0,97,0.01,,---,0.01,VWS V14.01,2013-07-26 05:45:00,
2013-07-26 01:50:00,59.6,58.8,30.05,NE,52,0.0,2.0,97,0.01,,---,0.01,VWS V14.01,2013-07-26 05:50:00,
2013-07-26 01:55:00,59.7,58.8,30.05,NE,52,0.0,1.0,97,0.01,,---,0.01,VWS V14.01,2013-07-26 05:55:00,
2013-07-26 02:00:00,59.6,58.8,30.05,NE,35,0.0,4.0,97,0.01,,---,0.01,VWS V14.01,2013-07-26 06:00:00,
2013-07-26 02:05:00,59.6,58.8,30.04,East,90,1.0,3.0,97,0.00,,---,0.01,VWS V14.01,2013-07-26 06:05:00,
2013-07-26 02:10:00,59.7,58.8,30.04,SW,229,0.0,2.0,97,0.00,,---,0.01,VWS V14.01,2013-07-26 06:10:00,
2013-07-26 02:15:00,59.7,58.8,30.04,SW,229,0.0,1.0,97,0.00,,---,0.01,VWS V14.01,2013-07-26 06:15:00,
2013-07-26 02:20:00,59.7,58.8,30.04,SW,229,0.0,2.0,97,0.00,,---,0.01,VWS V14.01,2013-07-26 06:20:00,
2013-07-26 02:25:00,59.7,58.8,30.05,SW,229,0.0,1.0,97,0.01,,---,0.02,VWS V14.01,2013-07-26 06:25:00,
2013-07-26 02:30:00,59.7,58.8,30.04,SW,229,0.0,1.0,97,0.01,,---,0.02,VWS V14.01,2013-07-26 06:30:00,
2013-07-26 02:35:00,59.7,58.8,30.04,NNE,13,0.0,3.0,97,0.01,,---,0.02,VWS V14.01,2013-07-26 06:35:00,
2013-07-26 02:40:00,59.7,58.8,30.04,West,270,1.0,2.0,97,0.01,,---,0.02,VWS V14.01,2013-07-26 06:40:00,
2013-07-26 02:45:00,59.7,58.8,30.04,NNE,30,0.0,3.0,97,0.01,,---,0.02,VWS V14.01,2013-07-26 06:45:00,
2013-07-26 02:50:00,59.7,58.8,30.03,West,268,0.0,5.0,97,0.01,,---,0.02,VWS V14.01,2013-07-26 06:50:00,
2013-07-26 02:55:00,59.7,58.8,30.03,NNE,30,0.0,3.0,97,0.01,,---,0.02,VWS V14.01,2013-07-26 06:55:00,
2013-07-26 03:00:00,59.8,59.0,30.03,NNE,21,2.0,4.0,97,0.01,,---,0.02,VWS V14.01,2013-07-26 07:00:00,
2013-07-26 03:05:00,59.8,59.0,30.03,NNE,17,1.0,3.0,97,0.01,,---,0.02,VWS V14.01,2013-07-26 07:05:00,
2013-07-26 03:10:00,59.8,59.0,30.03,North,6,1.0,2.0,97,0.01,,---,0.02,VWS V14.01,2013-07-26 07:10:00,
2013-07-26 03:15:00,59.8,59.0,30.03,NNE,24,0.0,4.0,97,0.01,,---,0.02,VWS V14.01,2013-07-26 07:15:00,
2013-07-26 03:20:00,59.8,59.0,30.03,West,264,0.0,3.0,97,0.01,,---,0.02,VWS V14.01,2013-07-26 07:20:00,
2013-07-26 03:25:00,59.9,59.0,30.03,West,262,1.0,1.0,97,0.01,,---,0.02,VWS V14.01,2013-07-26 07:25:00,
2013-07-26 03:30:00,59.8,59.0,30.03,NNE,17,1.0,3.0,97,0.00,,---,0.02,VWS V14.01,2013-07-26 07:30:00,
2013-07-26 03:35:00,59.9,59.0,30.02,NNE,17,0.0,1.0,97,0.01,,---,0.03,VWS V14.01,2013-07-26 07:35:00,
2013-07-26 03:40:00,59.9,59.0,30.02,NNE,16,0.0,2.0,97,0.01,,---,0.03,VWS V14.01,2013-07-26 07:40:00,
2013-07-26 03:45:00,59.9,59.0,30.02,NNE,17,0.0,1.0,97,0.01,,---,0.03,VWS V14.01,2013-07-26 07:45:00,
2013-07-26 03:50:00,59.9,59.0,30.02,ESE,115,0.0,2.0,97,0.01,,---,0.03,VWS V14.01,2013-07-26 07:50:00,
2013-07-26 03:55:00,59.9,59.0,30.02,ENE,57,0.0,1.0,97,0.05,,---,0.07,VWS V14.01,2013-07-26 07:55:00,
2013-07-26 04:00:00,59.9,59.0,30.02,ESE,123,0.0,2.0,97,0.08,,---,0.10,VWS V14.01,2013-07-26 08:00:00,
2013-07-26 04:05:00,59.9,59.0,30.02,SW,229,0.0,2.0,97,0.10,,---,0.12,VWS V14.01,2013-07-26 08:05:00,
2013-07-26 04:10:00,59.9,59.0,30.01,NNE,12,0.0,2.0,97,0.11,,---,0.13,VWS V14.01,2013-07-26 08:10:00,
2013-07-26 04:15:00,60.0,59.2,30.01,WNW,286,0.0,3.0,97,0.12,,---,0.14,VWS V14.01,2013-07-26 08:15:00,
2013-07-26 04:20:00,60.0,59.2,30.01,SE,128,1.0,2.0,97,0.13,,---,0.15,VWS V14.01,2013-07-26 08:20:00,
2013-07-26 04:25:00,60.0,59.2,30.01,NNW,333,1.0,3.0,97,0.13,,---,0.15,VWS V14.01,2013-07-26 08:25:00,
2013-07-26 04:30:00,60.0,59.2,30.01,NNW,332,0.0,1.0,97,0.14,,---,0.16,VWS V14.01,2013-07-26 08:30:00,
2013-07-26 04:35:00,60.1,59.2,30.01,SSW,192,0.0,2.0,97,0.14,,---,0.16,VWS V14.01,2013-07-26 08:35:00,
2013-07-26 04:40:00,60.1,59.2,30.01,SSW,192,0.0,2.0,97,0.15,,---,0.18,VWS V14.01,2013-07-26 08:40:00,
2013-07-26 04:45:00,60.1,59.2,30.01,NNE,21,1.0,2.0,97,0.16,,---,0.19,VWS V14.01,2013-07-26 08:45:00,
2013-07-26 04:50:00,60.2,59.3,30.01,North,9,0.0,2.0,97,0.17,,---,0.20,VWS V14.01,2013-07-26 08:50:00,
2013-07-26 04:55:00,60.2,59.3,30.01,NNE,30,0.0,4.0,97,0.18,,---,0.21,VWS V14.01,2013-07-26 08:55:00,
2013-07-26 05:00:00,60.2,59.3,30.01,North,8,0.0,3.0,97,0.15,,---,0.22,VWS V14.01,2013-07-26 09:00:00,
2013-07-26 05:05:00,60.3,59.5,30.01,SE,129,0.0,3.0,97,0.13,,---,0.23,VWS V14.01,2013-07-26 09:05:00,
2013-07-26 05:10:00,60.3,59.5,30.01,SE,131,0.0,2.0,97,0.11,,---,0.23,VWS V14.01,2013-07-26 09:10:00,
2013-07-26 05:15:00,60.4,59.5,30.01,North,4,0.0,3.0,97,0.11,,---,0.24,VWS V14.01,2013-07-26 09:15:00,
2013-07-26 05:20:00,60.4,59.5,30.00,NW,323,0.0,1.0,97,0.11,,---,0.25,VWS V14.01,2013-07-26 09:20:00,
2013-07-26 05:25:00,60.4,59.5,30.00,SSW,196,0.0,3.0,97,0.10,,---,0.25,VWS V14.01,2013-07-26 09:25:00,
2013-07-26 05:30:00,60.4,59.5,30.00,NNE,15,1.0,3.0,97,0.10,,---,0.25,VWS V14.01,2013-07-26 09:30:00,
2013-07-26 05:35:00,60.4,59.5,30.00,NNE,18,0.0,1.0,97,0.10,,---,0.26,VWS V14.01,2013-07-26 09:35:00,
2013-07-26 05:40:00,60.4,59.5,30.00,NNW,346,0.0,3.0,97,0.10,,---,0.26,VWS V14.01,2013-07-26 09:40:00,
2013-07-26 05:45:00,60.5,59.7,30.00,NW,312,0.0,4.0,97,0.08,,---,0.26,VWS V14.01,2013-07-26 09:45:00,
2013-07-26 05:50:00,60.5,59.7,30.00,North,9,0.0,2.0,97,0.10,,---,0.29,VWS V14.01,2013-07-26 09:50:00,
2013-07-26 05:55:00,60.5,59.7,30.00,SSE,161,3.0,3.0,97,0.09,,---,0.29,VWS V14.01,2013-07-26 09:55:00,
2013-07-26 06:00:00,60.5,59.7,30.00,East,81,0.0,3.0,97,0.09,,---,0.30,VWS V14.01,2013-07-26 10:00:00,
2013-07-26 06:05:00,60.5,59.7,30.00,NNE,13,0.0,2.0,97,0.08,,---,0.30,VWS V14.01,2013-07-26 10:05:00,
2013-07-26 06:10:00,60.6,59.8,30.00,ENE,78,0.0,4.0,97,0.08,,---,0.31,VWS V14.01,2013-07-26 10:10:00,
2013-07-26 06:15:00,60.6,59.8,30.00,SSW,202,0.0,2.0,97,0.08,,---,0.31,VWS V14.01,2013-07-26 10:15:00,
2013-07-26 06:20:00,60.7,59.8,30.00,SSW,202,0.0,0.0,97,0.08,,---,0.32,VWS V14.01,2013-07-26 10:20:00,
2013-07-26 06:25:00,60.7,59.8,30.00,South,189,0.0,2.0,97,0.08,,---,0.33,VWS V14.01,2013-07-26 10:25:00,
2013-07-26 06:30:00,60.7,59.8,30.00,North,351,1.0,3.0,97,0.08,,---,0.33,VWS V14.01,2013-07-26 10:30:00,
2013-07-26 06:35:00,60.7,60.1,30.00,NW,316,1.0,1.0,98,0.08,,---,0.33,VWS V14.01,2013-07-26 10:35:00,
2013-07-26 06:40:00,60.8,60.2,30.00,South,190,0.0,3.0,98,0.07,,---,0.33,VWS V14.01,2013-07-26 10:40:00,
2013-07-26 06:45:00,60.9,60.3,30.00,SSE,163,0.0,5.0,98,0.08,,---,0.34,VWS V14.01,2013-07-26 10:45:00,
2013-07-26 06:50:00,60.9,60.3,30.00,North,5,2.0,5.0,98,0.08,,---,0.34,VWS V14.01,2013-07-26 10:50:00,
2013-07-26 06:55:00,61.0,60.4,30.00,North,359,0.0,2.0,98,0.05,,---,0.34,VWS V14.01,2013-07-26 10:55:00,
2013-07-26 07:00:00,61.1,60.5,30.00,ENE,65,0.0,3.0,98,0.05,,---,0.34,VWS V14.01,2013-07-26 11:00:00,
2013-07-26 07:05:00,61.1,60.2,30.01,North,7,2.0,4.0,97,0.04,,---,0.34,VWS V14.01,2013-07-26 11:05:00,
2013-07-26 07:10:00,61.1,60.2,30.00,North,9,0.0,3.0,97,0.04,,---,0.34,VWS V14.01,2013-07-26 11:10:00,
2013-07-26 07:15:00,61.2,60.3,30.00,East,84,0.0,4.0,97,0.03,,---,0.34,VWS V14.01,2013-07-26 11:15:00,
2013-07-26 07:20:00,61.2,60.3,30.00,NNE,15,0.0,4.0,97,0.03,,---,0.34,VWS V14.01,2013-07-26 11:20:00,
2013-07-26 07:25:00,61.1,60.2,30.00,NNW,346,0.0,4.0,97,0.02,,---,0.34,VWS V14.01,2013-07-26 11:25:00,
2013-07-26 07:30:00,61.2,60.3,30.00,SW,231,0.0,3.0,97,0.02,,---,0.35,VWS V14.01,2013-07-26 11:30:00,
2013-07-26 07:35:00,61.3,60.4,30.00,NE,40,0.0,3.0,97,0.02,,---,0.35,VWS V14.01,2013-07-26 11:35:00,
2013-07-26 07:40:00,61.3,60.4,30.00,NW,318,0.0,5.0,97,0.02,,---,0.35,VWS V14.01,2013-07-26 11:40:00,
2013-07-26 07:45:00,61.4,60.5,30.00,ENE,60,2.0,5.0,97,0.03,,---,0.36,VWS V14.01,2013-07-26 11:45:00,
2013-07-26 07:50:00,61.3,60.4,30.00,SE,141,1.0,4.0,97,0.03,,---,0.37,VWS V14.01,2013-07-26 11:50:00,
2013-07-26 07:55:00,61.3,60.4,30.00,NE,40,2.0,5.0,97,0.04,,---,0.38,VWS V14.01,2013-07-26 11:55:00,
2013-07-26 08:00:00,61.3,60.4,30.00,NNW,344,0.0,5.0,97,0.05,,---,0.39,VWS V14.01,2013-07-26 12:00:00,
2013-07-26 08:05:00,61.3,60.4,30.00,ENE,67,0.0,2.0,97,0.05,,---,0.39,VWS V14.01,2013-07-26 12:05:00,
2013-07-26 08:10:00,61.4,60.8,30.00,NW,317,1.0,2.0,98,0.05,,---,0.39,VWS V14.01,2013-07-26 12:10:00,
2013-07-26 08:15:00,61.5,60.9,30.00,SE,126,0.0,3.0,98,0.06,,---,0.40,VWS V14.01,2013-07-26 12:15:00,
2013-07-26 08:20:00,61.5,60.9,30.00,NE,46,0.0,2.0,98,0.06,,---,0.40,VWS V14.01,2013-07-26 12:20:00,
2013-07-26 08:25:00,61.6,61.0,29.99,South,190,0.0,3.0,98,0.06,,---,0.40,VWS V14.01,2013-07-26 12:25:00,
2013-07-26 08:30:00,61.7,61.1,30.00,NW,308,0.0,3.0,98,0.06,,---,0.40,VWS V14.01,2013-07-26 12:30:00,
2013-07-26 08:35:00,61.6,60.7,29.99,NNE,19,0.0,6.0,97,0.05,,---,0.40,VWS V14.01,2013-07-26 12:35:00,
2013-07-26 08:40:00,61.7,60.8,29.99,NNE,14,2.0,5.0,97,0.05,,---,0.40,VWS V14.01,2013-07-26 12:40:00,
2013-07-26 08:45:00,61.6,60.7,29.99,East,81,0.0,5.0,97,0.05,,---,0.40,VWS V14.01,2013-07-26 12:45:00,
2013-07-26 08:50:00,61.7,60.8,29.99,NNW,333,0.0,4.0,97,0.04,,---,0.40,VWS V14.01,2013-07-26 12:50:00,
2013-07-26 08:55:00,61.8,60.9,29.99,West,271,0.0,3.0,97,0.03,,---,0.40,VWS V14.01,2013-07-26 12:55:00,
2013-07-26 09:00:00,61.9,61.0,29.99,ENE,67,0.0,4.0,97,0.02,,---,0.40,VWS V14.01,2013-07-26 13:00:00,
2013-07-26 09:05:00,62.0,61.1,29.99,SE,140,0.0,5.0,97,0.01,,---,0.40,VWS V14.01,2013-07-26 13:05:00,
2013-07-26 09:10:00,62.1,61.5,29.99,NNE,22,0.0,3.0,98,0.01,,---,0.40,VWS V14.01,2013-07-26 13:10:00,
2013-07-26 09:15:00,62.0,61.1,29.99,North,9,2.0,6.0,97,0.01,,---,0.40,VWS V14.01,2013-07-26 13:15:00,
2013-07-26 09:20:00,62.0,61.1,29.99,NE,45,0.0,4.0,97,0.00,,---,0.40,VWS V14.01,2013-07-26 13:20:00,
2013-07-26 09:25:00,62.1,61.2,29.99,East,92,0.0,4.0,97,0.00,,---,0.40,VWS V14.01,2013-07-26 13:25:00,
2013-07-26 09:30:00,62.1,61.2,29.99,NNW,340,1.0,4.0,97,0.00,,---,0.40,VWS V14.01,2013-07-26 13:30:00,
2013-07-26 09:35:00,62.1,61.2,29.98,NNE,15,0.0,3.0,97,0.00,,---,0.40,VWS V14.01,2013-07-26 13:35:00,
2013-07-26 09:40:00,62.3,61.4,29.98,SSE,152,0.0,5.0,97,0.00,,---,0.40,VWS V14.01,2013-07-26 13:40:00,
2013-07-26 09:45:00,62.4,61.5,29.98,WSW,248,0.0,6.0,97,0.00,,---,0.40,VWS V14.01,2013-07-26 13:45:00,
2013-07-26 09:50:00,62.5,61.6,29.98,SSE,160,0.0,5.0,97,0.00,,---,0.40,VWS V14.01,2013-07-26 13:50:00,
2013-07-26 09:55:00,62.7,62.1,29.98,South,174,0.0,2.0,98,0.00,,---,0.40,VWS V14.01,2013-07-26 13:55:00,
2013-07-26 10:00:00,62.7,61.8,29.98,SW,222,2.0,4.0,97,0.00,,---,0.40,VWS V14.01,2013-07-26 14:00:00,
2013-07-26 10:05:00,62.7,61.8,29.97,ENE,58,1.0,5.0,97,0.00,,---,0.40,VWS V14.01,2013-07-26 14:05:00,
2013-07-26 10:10:00,62.8,61.9,29.97,East,96,0.0,11.0,97,0.00,,---,0.40,VWS V14.01,2013-07-26 14:10:00,
2013-07-26 10:15:00,62.9,62.0,29.97,SSW,207,0.0,3.0,97,0.00,,---,0.40,VWS V14.01,2013-07-26 14:15:00,
2013-07-26 10:20:00,63.2,62.3,29.97,SW,220,1.0,5.0,97,0.00,,---,0.40,VWS V14.01,2013-07-26 14:20:00,
2013-07-26 10:25:00,63.2,62.3,29.97,NNW,337,1.0,5.0,97,0.00,,---,0.40,VWS V14.01,2013-07-26 14:25:00,
2013-07-26 10:30:00,63.2,62.3,29.97,WNW,301,4.0,5.0,97,0.00,,---,0.40,VWS V14.01,2013-07-26 14:30:00,
2013-07-26 10:35:00,63.3,62.4,29.97,West,265,0.0,6.0,97,0.00,,---,0.40,VWS V14.01,2013-07-26 14:35:00,
2013-07-26 10:40:00,63.2,62.3,29.97,NNE,23,0.0,3.0,97,0.00,,---,0.40,VWS V14.01,2013-07-26 14:40:00,
2013-07-26 10:45:00,63.2,62.3,29.97,NNE,14,0.0,4.0,97,0.00,,---,0.40,VWS V14.01,2013-07-26 14:45:00,
2013-07-26 10:50:00,63.3,62.4,29.98,North,5,1.0,3.0,97,0.00,,---,0.40,VWS V14.01,2013-07-26 14:50:00,
2013-07-26 10:55:00,63.2,62.0,29.98,South,181,0.0,4.0,96,0.00,,---,0.40,VWS V14.01,2013-07-26 14:55:00,
2013-07-26 11:00:00,63.4,62.5,29.98,SSW,213,1.0,5.0,97,0.00,,---,0.40,VWS V14.01,2013-07-26 15:00:00,
2013-07-26 11:05:00,63.4,62.2,29.97,North,360,0.0,6.0,96,0.00,,---,0.40,VWS V14.01,2013-07-26 15:05:00,
2013-07-26 11:10:00,63.4,62.2,29.97,NNE,30,0.0,6.0,96,0.00,,---,0.40,VWS V14.01,2013-07-26 15:10:00,
2013-07-26 11:15:00,63.6,62.4,29.97,SSW,199,0.0,6.0,96,0.00,,---,0.40,VWS V14.01,2013-07-26 15:15:00,
2013-07-26 11:20:00,63.8,62.6,29.97,NNE,21,0.0,9.0,96,0.00,,---,0.40,VWS V14.01,2013-07-26 15:20:00,
2013-07-26 11:25:00,63.9,62.7,29.97,NE,40,1.0,5.0,96,0.00,,---,0.40,VWS V14.01,2013-07-26 15:25:00,
2013-07-26 11:30:00,64.0,62.8,29.97,NNE,18,2.0,3.0,96,0.00,,---,0.40,VWS V14.01,2013-07-26 15:30:00,
2013-07-26 11:35:00,64.1,62.9,29.97,NNE,15,0.0,9.0,96,0.00,,---,0.40,VWS V14.01,2013-07-26 15:35:00,
2013-07-26 11:40:00,64.2,63.0,29.97,NNW,333,6.0,7.0,96,0.00,,---,0.40,VWS V14.01,2013-07-26 15:40:00,
2013-07-26 11:45:00,64.2,62.7,29.97,SW,232,3.0,6.0,95,0.00,,---,0.40,VWS V14.01,2013-07-26 15:45:00,
2013-07-26 11:50:00,64.3,63.1,29.97,North,356,0.0,11.0,96,0.00,,---,0.40,VWS V14.01,2013-07-26 15:50:00,
2013-07-26 11:55:00,64.4,63.2,29.97,NNE,21,2.0,3.0,96,0.00,,---,0.40,VWS V14.01,2013-07-26 15:55:00,
2013-07-26 12:00:00,64.5,63.3,29.97,NW,313,0.0,6.0,96,0.00,,---,0.40,VWS V14.01,2013-07-26 16:00:00,
2013-07-26 12:05:00,64.5,63.0,29.97,SE,136,1.0,7.0,95,0.00,,---,0.40,VWS V14.01,2013-07-26 16:05:00,
2013-07-26 12:10:00,64.7,63.5,29.97,SSW,195,0.0,4.0,96,0.00,,---,0.40,VWS V14.01,2013-07-26 16:10:00,
2013-07-26 12:15:00,64.8,63.3,29.97,NNW,335,1.0,4.0,95,0.00,,---,0.40,VWS V14.01,2013-07-26 16:15:00,
2013-07-26 12:20:00,64.9,63.4,29.96,NNE,21,0.0,3.0,95,0.00,,---,0.40,VWS V14.01,2013-07-26 16:20:00,
2013-07-26 12:25:00,65.0,63.5,29.97,ENE,71,3.0,4.0,95,0.00,,---,0.40,VWS V14.01,2013-07-26 16:25:00,
2013-07-26 12:30:00,65.1,63.6,29.97,NNW,344,2.0,4.0,95,0.00,,---,0.40,VWS V14.01,2013-07-26 16:30:00,
2013-07-26 12:35:00,65.1,63.3,29.97,West,276,2.0,4.0,94,0.00,,---,0.40,VWS V14.01,2013-07-26 16:35:00,
2013-07-26 12:40:00,65.2,63.4,29.96,WSW,258,0.0,2.0,94,0.00,,---,0.40,VWS V14.01,2013-07-26 16:40:00,
2013-07-26 12:45:00,65.4,63.6,29.96,WSW,250,3.0,4.0,94,0.00,,---,0.40,VWS V14.01,2013-07-26 16:45:00,
2013-07-26 12:50:00,65.5,63.7,29.96,NNE,30,0.0,3.0,94,0.00,,---,0.40,VWS V14.01,2013-07-26 16:50:00,
2013-07-26 12:55:00,65.7,63.9,29.96,SSW,201,4.0,4.0,94,0.00,,---,0.40,VWS V14.01,2013-07-26 16:55:00,
2013-07-26 13:00:00,65.9,64.1,29.95,West,269,5.0,5.0,94,0.00,,---,0.40,VWS V14.01,2013-07-26 17:00:00,
2013-07-26 13:05:00,66.1,64.0,29.95,NW,308,3.0,5.0,93,0.00,,---,0.40,VWS V14.01,2013-07-26 17:05:00,
2013-07-26 13:10:00,66.3,64.5,29.95,NE,40,2.0,3.0,94,0.00,,---,0.40,VWS V14.01,2013-07-26 17:10:00,
2013-07-26 13:15:00,66.5,64.4,29.95,North,6,0.0,6.0,93,0.00,,---,0.40,VWS V14.01,2013-07-26 17:15:00,
2013-07-26 13:20:00,66.7,64.6,29.95,NE,51,7.0,9.0,93,0.00,,---,0.40,VWS V14.01,2013-07-26 17:20:00,
2013-07-26 13:25:00,66.7,64.3,29.95,West,271,1.0,7.0,92,0.00,,---,0.40,VWS V14.01,2013-07-26 17:25:00,
2013-07-26 13:30:00,66.9,64.2,29.95,NE,53,0.0,5.0,91,0.00,,---,0.40,VWS V14.01,2013-07-26 17:30:00,
2013-07-26 13:35:00,67.0,64.3,29.95,SSE,147,0.0,8.0,91,0.00,,---,0.40,VWS V14.01,2013-07-26 17:35:00,
2013-07-26 13:40:00,67.2,64.8,29.94,ENE,59,0.0,5.0,92,0.00,,---,0.40,VWS V14.01,2013-07-26 17:40:00,
2013-07-26 13:45:00,67.5,65.1,29.94,North,3,0.0,5.0,92,0.00,,---,0.40,VWS V14.01,2013-07-26 17:45:00,
2013-07-26 13:50:00,67.8,65.1,29.94,West,268,2.0,4.0,91,0.00,,---,0.40,VWS V14.01,2013-07-26 17:50:00,
2013-07-26 13:55:00,68.2,65.5,29.94,ENE,61,0.0,5.0,91,0.00,,---,0.40,VWS V14.01,2013-07-26 17:55:00,
2013-07-26 14:00:00,68.4,65.4,29.94,NE,40,1.0,10.0,90,0.00,,---,0.40,VWS V14.01,2013-07-26 18:00:00,
2013-07-26 14:05:00,68.6,65.2,29.94,West,276,2.0,5.0,89,0.00,,---,0.40,VWS V14.01,2013-07-26 18:05:00,
2013-07-26 14:10:00,68.7,65.3,29.94,NE,40,0.0,7.0,89,0.00,,---,0.40,VWS V14.01,2013-07-26 18:10:00,
2013-07-26 14:15:00,68.7,65.3,29.94,West,263,0.0,7.0,89,0.00,,---,0.40,VWS V14.01,2013-07-26 18:15:00,
2013-07-26 14:20:00,68.6,65.2,29.94,East,92,3.0,5.0,89,0.00,,---,0.40,VWS V14.01,2013-07-26 18:20:00,
2013-07-26 14:25:00,68.5,65.1,29.94,WNW,289,0.0,7.0,89,0.00,,---,0.40,VWS V14.01,2013-07-26 18:25:00,
2013-07-26 14:30:00,68.2,64.8,29.95,NNE,30,2.0,7.0,89,0.00,,---,0.40,VWS V14.01,2013-07-26 18:30:00,
2013-07-26 14:35:00,68.1,64.7,29.94,WNW,296,0.0,5.0,89,0.00,,---,0.40,VWS V14.01,2013-07-26 18:35:00,
2013-07-26 14:40:00,68.1,65.1,29.94,WNW,300,2.0,10.0,90,0.00,,---,0.40,VWS V14.01,2013-07-26 18:40:00,
2013-07-26 14:45:00,68.1,64.7,29.94,SSW,208,0.0,6.0,89,0.00,,---,0.40,VWS V14.01,2013-07-26 18:45:00,
2013-07-26 14:50:00,68.2,64.8,29.94,NNW,336,1.0,4.0,89,0.00,,---,0.40,VWS V14.01,2013-07-26 18:50:00,
2013-07-26 14:55:00,68.3,64.9,29.95,NE,45,0.0,7.0,89,0.00,,---,0.40,VWS V14.01,2013-07-26 18:55:00,
2013-07-26 15:00:00,68.3,64.6,29.95,SSW,209,1.0,10.0,88,0.00,,---,0.40,VWS V14.01,2013-07-26 19:00:00,
2013-07-26 15:05:00,68.5,65.1,29.95,North,353,0.0,5.0,89,0.00,,---,0.40,VWS V14.01,2013-07-26 19:05:00,
2013-07-26 15:10:00,68.6,64.9,29.95,East,80,0.0,6.0,88,0.00,,---,0.40,VWS V14.01,2013-07-26 19:10:00,
2013-07-26 15:15:00,68.6,64.9,29.95,NE,44,2.0,3.0,88,0.00,,---,0.40,VWS V14.01,2013-07-26 19:15:00,
2013-07-26 15:20:00,68.6,64.9,29.95,NE,35,0.0,6.0,88,0.00,,---,0.40,VWS V14.01,2013-07-26 19:20:00,
2013-07-26 15:25:00,68.4,64.7,29.95,SSE,161,1.0,7.0,88,0.00,,---,0.40,VWS V14.01,2013-07-26 19:25:00,
2013-07-26 15:30:00,68.4,65.0,29.95,WSW,251,5.0,6.0,89,0.00,,---,0.40,VWS V14.01,2013-07-26 19:30:00,
2013-07-26 15:35:00,68.2,64.5,29.95,ENE,62,3.0,6.0,88,0.00,,---,0.40,VWS V14.01,2013-07-26 19:35:00,
2013-07-26 15:40:00,68.2,64.8,29.95,SE,141,3.0,5.0,89,0.00,,---,0.40,VWS V14.01,2013-07-26 19:40:00,
2013-07-26 15:45:00,68.3,64.6,29.95,WNW,284,9.0,9.0,88,0.00,,---,0.40,VWS V14.01,2013-07-26 19:45:00,
2013-07-26 15:50:00,68.4,64.7,29.95,SSE,161,1.0,9.0,88,0.00,,---,0.40,VWS V14.01,2013-07-26 19:50:00,
2013-07-26 15:55:00,68.5,64.8,29.94,NNW,343,0.0,7.0,88,0.00,,---,0.40,VWS V14.01,2013-07-26 19:55:00,
2013-07-26 16:00:00,68.8,65.1,29.95,NW,321,1.0,6.0,88,0.00,,---,0.40,VWS V14.01,2013-07-26 20:00:00,
2013-07-26 16:05:00,69.1,64.7,29.95,NNE,30,2.0,5.0,86,0.00,,---,0.40,VWS V14.01,2013-07-26 20:05:00,
2013-07-26 16:10:00,69.3,64.9,29.95,West,275,1.0,5.0,86,0.00,,---,0.40,VWS V14.01,2013-07-26 20:10:00,
2013-07-26 16:15:00,69.6,65.2,29.95,West,263,1.0,6.0,86,0.00,,---,0.40,VWS V14.01,2013-07-26 20:15:00,
2013-07-26 16:20:00,69.9,65.5,29.94,NE,40,1.0,11.0,86,0.00,,---,0.40,VWS V14.01,2013-07-26 20:20:00,
2013-07-26 16:25:00,70.4,66.0,29.94,ENE,66,0.0,6.0,86,0.00,,---,0.40,VWS V14.01,2013-07-26 20:25:00,
2013-07-26 16:30:00,70.6,66.2,29.95,WNW,288,3.0,8.0,86,0.00,,---,0.40,VWS V14.01,2013-07-26 20:30:00,
2013-07-26 16:35:00,70.6,66.6,29.95,West,280,4.0,7.0,87,0.00,,---,0.40,VWS V14.01,2013-07-26 20:35:00,
2013-07-26 16:40:00,70.7,67.0,29.95,WSW,237,3.0,10.0,88,0.00,,---,0.40,VWS V14.01,2013-07-26 20:40:00,
2013-07-26 16:45:00,70.8,67.1,29.95,NNE,18,4.0,9.0,88,0.00,,---,0.40,VWS V14.01,2013-07-26 20:45:00,
2013-07-26 16:50:00,70.7,67.0,29.95,NNE,21,1.0,6.0,88,0.00,,---,0.40,VWS V14.01,2013-07-26 20:50:00,
2013-07-26 16:55:00,70.6,66.6,29.95,NNE,30,1.0,5.0,87,0.00,,---,0.40,VWS V14.01,2013-07-26 20:55:00,
2013-07-26 17:00:00,70.4,66.7,29.95,NE,35,0.0,7.0,88,0.00,,---,0.40,VWS V14.01,2013-07-26 21:00:00,
2013-07-26 17:05:00,70.3,66.6,29.95,NNE,19,0.0,5.0,88,0.00,,---,0.40,VWS V14.01,2013-07-26 21:05:00,
2013-07-26 17:10:00,70.3,66.6,29.95,WSW,238,0.0,4.0,88,0.00,,---,0.40,VWS V14.01,2013-07-26 21:10:00,
2013-07-26 17:15:00,70.3,66.6,29.95,ESE,108,0.0,4.0,88,0.00,,---,0.40,VWS V14.01,2013-07-26 21:15:00,
2013-07-26 17:20:00,70.4,66.7,29.95,NNE,30,2.0,3.0,88,0.00,,---,0.40,VWS V14.01,2013-07-26 21:20:00,
2013-07-26 17:25:00,70.4,66.7,29.95,NNW,343,0.0,2.0,88,0.00,,---,0.40,VWS V14.01,2013-07-26 21:25:00,
2013-07-26 17:30:00,70.3,66.6,29.95,NNE,30,0.0,5.0,88,0.00,,---,0.40,VWS V14.01,2013-07-26 21:30:00,
2013-07-26 17:35:00,70.3,66.6,29.95,WSW,246,0.0,3.0,88,0.00,,---,0.40,VWS V14.01,2013-07-26 21:35:00,
2013-07-26 17:40:00,70.3,66.6,29.95,North,349,0.0,4.0,88,0.00,,---,0.40,VWS V14.01,2013-07-26 21:40:00,
2013-07-26 17:45:00,70.3,66.6,29.95,North,350,1.0,1.0,88,0.00,,---,0.40,VWS V14.01,2013-07-26 21:45:00,
2013-07-26 17:50:00,70.3,66.9,29.95,NNW,343,0.0,2.0,89,0.00,,---,0.40,VWS V14.01,2013-07-26 21:50:00,
2013-07-26 17:55:00,70.3,66.9,29.95,North,352,0.0,1.0,89,0.00,,---,0.40,VWS V14.01,2013-07-26 21:55:00,
2013-07-26 18:00:00,70.4,67.0,29.95,SW,234,0.0,2.0,89,0.00,,---,0.40,VWS V14.01,2013-07-26 22:00:00,
2013-07-26 18:05:00,70.4,67.0,29.95,SW,234,0.0,1.0,89,0.00,,---,0.40,VWS V14.01,2013-07-26 22:05:00,
2013-07-26 18:10:00,70.4,67.0,29.95,SW,234,0.0,1.0,89,0.00,,---,0.40,VWS V14.01,2013-07-26 22:10:00,
2013-07-26 18:15:00,70.4,67.0,29.96,SW,234,0.0,1.0,89,0.00,,---,0.40,VWS V14.01,2013-07-26 22:15:00,
2013-07-26 18:20:00,70.4,67.3,29.96,SW,234,0.0,0.0,90,0.00,,---,0.40,VWS V14.01,2013-07-26 22:20:00,
2013-07-26 18:25:00,70.4,67.7,29.96,SW,234,0.0,0.0,91,0.00,,---,0.40,VWS V14.01,2013-07-26 22:25:00,
2013-07-26 18:30:00,70.4,68.0,29.96,SW,234,0.0,0.0,92,0.00,,---,0.40,VWS V14.01,2013-07-26 22:30:00,
2013-07-26 18:35:00,70.3,67.9,29.96,SW,234,0.0,0.0,92,0.00,,---,0.40,VWS V14.01,2013-07-26 22:35:00,
2013-07-26 18:40:00,70.3,67.9,29.96,SW,234,0.0,0.0,92,0.00,,---,0.40,VWS V14.01,2013-07-26 22:40:00,
2013-07-26 18:45:00,70.2,67.8,29.96,SW,234,0.0,0.0,92,0.00,,---,0.40,VWS V14.01,2013-07-26 22:45:00,
2013-07-26 18:50:00,70.0,67.9,29.97,SW,234,0.0,0.0,93,0.00,,---,0.40,VWS V14.01,2013-07-26 22:50:00,
2013-07-26 18:55:00,69.8,67.7,29.97,SW,234,0.0,0.0,93,0.00,,---,0.40,VWS V14.01,2013-07-26 22:55:00,
2013-07-26 19:00:00,69.7,67.6,29.97,SW,234,0.0,0.0,93,0.01,,---,0.41,VWS V14.01,2013-07-26 23:00:00,
2013-07-26 19:05:00,69.7,67.9,29.97,SW,234,0.0,0.0,94,0.01,,---,0.41,VWS V14.01,2013-07-26 23:05:00,
2013-07-26 19:10:00,69.7,67.9,29.97,SW,234,0.0,0.0,94,0.01,,---,0.41,VWS V14.01,2013-07-26 23:10:00,
2013-07-26 19:15:00,69.5,67.7,29.97,SW,234,0.0,0.0,94,0.01,,---,0.41,VWS V14.01,2013-07-26 23:15:00,
2013-07-26 19:20:00,69.4,67.6,29.97,SW,234,0.0,0.0,94,0.01,,---,0.41,VWS V14.01,2013-07-26 23:20:00,
2013-07-26 19:25:00,69.3,67.5,29.97,SW,234,0.0,0.0,94,0.01,,---,0.41,VWS V14.01,2013-07-26 23:25:00,
2013-07-26 19:30:00,69.1,67.0,29.97,WSW,246,0.0,2.0,93,0.01,,---,0.41,VWS V14.01,2013-07-26 23:30:00,
2013-07-26 19:35:00,69.0,66.6,29.97,WSW,240,0.0,2.0,92,0.01,,---,0.41,VWS V14.01,2013-07-26 23:35:00,
2013-07-26 19:40:00,68.9,66.5,29.97,WSW,240,0.0,0.0,92,0.01,,---,0.41,VWS V14.01,2013-07-26 23:40:00,
2013-07-26 19:45:00,68.9,66.5,29.97,WSW,240,0.0,0.0,92,0.01,,---,0.41,VWS V14.01,2013-07-26 23:45:00,
2013-07-26 19:50:00,68.8,66.4,29.97,East,97,0.0,2.0,92,0.01,,---,0.41,VWS V14.01,2013-07-26 23:50:00,
2013-07-26 19:55:00,68.6,65.9,29.97,East,97,0.0,1.0,91,0.01,,---,0.41,VWS V14.01,2013-07-26 23:55:00,
2013-07-26 20:00:00,68.5,65.8,29.97,East,97,0.0,1.0,91,0.01,,---,0.41,VWS V14.01,2013-07-27 00:00:00,
2013-07-26 20:05:00,68.5,65.5,29.97,East,97,0.0,0.0,90,0.00,,---,0.41,VWS V14.01,2013-07-27 00:05:00,
2013-07-26 20:10:00,68.3,65.3,29.97,East,97,0.0,0.0,90,0.00,,---,0.41,VWS V14.01,2013-07-27 00:10:00,
2013-07-26 20:15:00,68.3,65.3,29.97,East,97,1.0,1.0,90,0.00,,---,0.41,VWS V14.01,2013-07-27 00:15:00,
2013-07-26 20:20:00,68.0,64.6,29.97,East,97,0.0,1.0,89,0.00,,---,0.41,VWS V14.01,2013-07-27 00:20:00,
2013-07-26 20:25:00,68.0,65.0,29.97,East,97,0.0,1.0,90,0.00,,---,0.41,VWS V14.01,2013-07-27 00:25:00,
2013-07-26 20:30:00,67.8,64.8,29.97,East,97,0.0,1.0,90,0.00,,---,0.41,VWS V14.01,2013-07-27 00:30:00,
2013-07-26 20:35:00,67.7,64.7,29.97,East,98,0.0,1.0,90,0.00,,---,0.41,VWS V14.01,2013-07-27 00:35:00,
2013-07-26 20:40:00,67.6,64.6,29.98,East,98,0.0,0.0,90,0.00,,---,0.41,VWS V14.01,2013-07-27 00:40:00,
2013-07-26 20:45:00,67.5,64.2,29.98,East,98,0.0,1.0,89,0.00,,---,0.41,VWS V14.01,2013-07-27 00:45:00,
2013-07-26 20:50:00,67.4,64.1,29.98,East,98,0.0,1.0,89,0.00,,---,0.41,VWS V14.01,2013-07-27 00:50:00,
2013-07-26 20:55:00,67.3,64.0,29.98,East,83,0.0,2.0,89,0.00,,---,0.41,VWS V14.01,2013-07-27 00:55:00,
2013-07-26 21:00:00,67.3,64.0,29.98,East,84,0.0,1.0,89,0.00,,---,0.41,VWS V14.01,2013-07-27 01:00:00,
2013-07-26 21:05:00,67.2,63.5,29.98,East,84,0.0,1.0,88,0.00,,---,0.41,VWS V14.01,2013-07-27 01:05:00,
2013-07-26 21:10:00,67.1,63.4,29.98,East,84,0.0,1.0,88,0.00,,---,0.41,VWS V14.01,2013-07-27 01:10:00,
2013-07-26 21:15:00,67.0,63.7,29.98,East,84,0.0,0.0,89,0.00,,---,0.41,VWS V14.01,2013-07-27 01:15:00,
2013-07-26 21:20:00,66.9,63.6,29.99,East,84,0.0,0.0,89,0.00,,---,0.41,VWS V14.01,2013-07-27 01:20:00,
2013-07-26 21:25:00,66.8,63.5,29.99,East,84,0.0,1.0,89,0.00,,---,0.41,VWS V14.01,2013-07-27 01:25:00,
2013-07-26 21:30:00,66.7,63.4,29.99,East,84,0.0,0.0,89,0.00,,---,0.41,VWS V14.01,2013-07-27 01:30:00,
2013-07-26 21:35:00,66.6,63.3,29.99,East,84,0.0,1.0,89,0.00,,---,0.41,VWS V14.01,2013-07-27 01:35:00,
2013-07-26 21:40:00,66.5,63.2,29.99,East,84,0.0,0.0,89,0.00,,---,0.41,VWS V14.01,2013-07-27 01:40:00,
2013-07-26 21:45:00,66.5,63.2,29.99,East,84,0.0,1.0,89,0.00,,---,0.41,VWS V14.01,2013-07-27 01:45:00,
2013-07-26 21:50:00,66.4,63.4,29.99,East,84,0.0,1.0,90,0.00,,---,0.41,VWS V14.01,2013-07-27 01:50:00,
2013-07-26 21:55:00,66.3,63.6,29.99,East,84,0.0,0.0,91,0.00,,---,0.41,VWS V14.01,2013-07-27 01:55:00,
2013-07-26 22:00:00,66.2,63.2,29.99,East,84,0.0,0.0,90,0.00,,---,0.41,VWS V14.01,2013-07-27 02:00:00,
2013-07-26 22:05:00,66.1,62.8,29.99,East,84,0.0,1.0,89,0.00,,---,0.41,VWS V14.01,2013-07-27 02:05:00,
2013-07-26 22:10:00,66.1,63.1,29.99,East,84,0.0,1.0,90,0.00,,---,0.41,VWS V14.01,2013-07-27 02:10:00,
2013-07-26 22:15:00,66.1,62.8,29.99,WSW,250,0.0,2.0,89,0.00,,---,0.41,VWS V14.01,2013-07-27 02:15:00,
2013-07-26 22:20:00,66.1,63.1,29.99,WSW,250,0.0,1.0,90,0.00,,---,0.41,VWS V14.01,2013-07-27 02:20:00,
2013-07-26 22:25:00,66.1,63.1,29.99,WSW,250,0.0,0.0,90,0.00,,---,0.41,VWS V14.01,2013-07-27 02:25:00,
2013-07-26 22:30:00,66.1,63.1,30.00,WSW,250,0.0,0.0,90,0.00,,---,0.41,VWS V14.01,2013-07-27 02:30:00,
2013-07-26 22:35:00,66.1,62.8,30.00,WSW,244,0.0,3.0,89,0.00,,---,0.41,VWS V14.01,2013-07-27 02:35:00,
2013-07-26 22:40:00,66.1,63.1,29.99,WSW,244,0.0,0.0,90,0.00,,---,0.41,VWS V14.01,2013-07-27 02:40:00,
2013-07-26 22:45:00,66.0,63.0,30.00,WSW,244,0.0,1.0,90,0.00,,---,0.41,VWS V14.01,2013-07-27 02:45:00,
2013-07-26 22:50:00,66.0,62.7,30.00,SW,234,0.0,1.0,89,0.00,,---,0.41,VWS V14.01,2013-07-27 02:50:00,
2013-07-26 22:55:00,66.0,62.7,30.00,SW,235,0.0,1.0,89,0.00,,---,0.41,VWS V14.01,2013-07-27 02:55:00,
2013-07-26 23:00:00,65.9,62.6,30.00,SW,235,0.0,1.0,89,0.00,,---,0.41,VWS V14.01,2013-07-27 03:00:00,
2013-07-26 23:05:00,65.9,62.9,30.00,SW,235,0.0,0.0,90,0.00,,---,0.41,VWS V14.01,2013-07-27 03:05:00,
2013-07-26 23:10:00,65.8,62.8,30.00,SW,235,0.0,0.0,90,0.00,,---,0.41,VWS V14.01,2013-07-27 03:10:00,
2013-07-26 23:15:00,65.6,62.9,30.00,SW,235,0.0,1.0,91,0.00,,---,0.41,VWS V14.01,2013-07-27 03:15:00,
2013-07-26 23:20:00,65.5,62.8,30.00,SW,235,0.0,0.0,91,0.00,,---,0.41,VWS V14.01,2013-07-27 03:20:00,
2013-07-26 23:25:00,65.4,62.7,30.00,SW,235,0.0,0.0,91,0.00,,---,0.41,VWS V14.01,2013-07-27 03:25:00,
2013-07-26 23:30:00,65.2,62.8,30.00,SW,235,0.0,0.0,92,0.00,,---,0.41,VWS V14.01,2013-07-27 03:30:00,
2013-07-26 23:35:00,65.0,62.6,30.00,SW,235,0.0,0.0,92,0.00,,---,0.41,VWS V14.01,2013-07-27 03:35:00,
2013-07-26 23:40:00,64.8,62.4,30.00,SW,235,0.0,1.0,92,0.00,,---,0.41,VWS V14.01,2013-07-27 03:40:00,
2013-07-26 23:45:00,64.7,62.3,30.00,SW,235,0.0,0.0,92,0.00,,---,0.41,VWS V14.01,2013-07-27 03:45:00,
2013-07-26 23:50:00,64.5,61.8,30.00,SW,235,0.0,1.0,91,0.00,,---,0.41,VWS V14.01,2013-07-27 03:50:00,
2013-07-26 23:55:00,64.5,61.8,30.01,SW,235,0.0,1.0,91,0.00,,---,0.41,VWS V14.01,2013-07-27 03:55:00,